Location: Terra Rouge Observatory
(46.0000°N, 62.7500°W)
Time: 00:46:33
(UTC-03:00)

Daily predictions for brighter satellites

Satellite Brightness Start Highest point End
(mag) Time Altitude Azimuth Time Altitude Azimuth Time Altitude Azimuth
Cosmos 1892 4.4 00:09:24 20° E 00:09:36 20° E 00:12:27 10° NE
ATLAS 2AS CENTAUR R/B 3.0 00:03:26 12° SSW 00:10:36 84° SE 00:18:45 10° NE
CZ-4C R/B 3.3 00:10:57 48° ESE 00:11:27 53° ENE 00:14:57 10° N
ALOS 2 3.1 00:10:58 35° ESE 00:12:23 50° ENE 00:16:39 10° N
H-2A R/B 3.3 00:08:42 10° NNE 00:12:36 36° E 00:13:12 34° ESE
ERBS 2.3 00:12:03 50° SW 00:12:52 87° NW 00:16:22 10° NE
In-Cosmos 22 Rocket 4.4 00:15:41 36° SSE 00:17:51 58° E 00:23:31 10° NNE
Cosmos 1933 4.0 00:15:46 10° NNW 00:19:40 47° W 00:20:45 37° SW
Cosmos 1626 4.2 00:20:37 14° WSW 00:22:49 22° WNW 00:25:49 10° NNW
COS B Rocket 3.7 00:21:09 10° N 00:24:47 53° W 00:25:48 40° SW
Coronas F rocket 4.0 00:26:43 13° ENE 00:26:43 13° ENE 00:27:25 10° NE
ATLAS 3B R/B 2.7 00:20:08 10° NW 00:27:05 64° WSW 00:30:02 34° S
Okean 1-7 3.1 00:26:50 10° NNW 00:31:05 66° W 00:32:05 48° SSW
Cosmos 2074 Rocket 4.0 00:28:30 35° S 00:31:17 73° E 00:37:35 10° NNE
Cosmos 2227 Rocket 3.2 00:27:13 10° SW 00:32:36 44° NW 00:38:02 10° NNE
Cosmos 1703 Rocket 4.5 00:29:38 10° NNW 00:33:42 38° W 00:35:00 31° SW
USA 238 DEB 3.8 00:26:59 10° NW 00:34:03 78° NE 00:38:26 25° SE
USA 238 3.8 00:27:05 10° NW 00:34:09 77° NE 00:38:33 25° SE
Helios 1A Rocket 3.9 00:31:22 10° NNE 00:35:10 33° E 00:35:35 33° ESE
Cosmos 2251 Rocket 3.7 00:31:24 10° NNW 00:36:45 67° ENE 00:38:52 36° SE
Cosmos 1782 3.9 00:33:50 10° N 00:37:29 33° ENE 00:38:19 30° E
Cosmos 2263 Rocket 4.3 00:37:31 12° ESE 00:38:43 12° E 00:40:55 10° ENE
Cosmos 2327 Rocket 4.5 00:37:53 35° S 00:40:47 85° E 00:47:15 10° N
Cosmos 2333 Rocket 4.0 00:36:57 10° NW 00:40:59 20° W 00:43:13 16° SW
Terra 4.2 00:39:48 10° WSW 00:41:37 12° W 00:43:27 10° WNW
H-2A R/B 4.4 00:40:00 10° WSW 00:42:31 13° W 00:45:03 10° WNW
Cosmos 44 Rocket 3.5 00:42:25 44° S 00:43:52 63° ESE 00:49:03 10° NE
SL-16 R/B 2.7 00:38:37 10° NW 00:44:01 46° WSW 00:45:52 34° SSW
NOSS 2-3 (E) 3.9 00:43:23 41° SSW 00:45:08 73° SE 00:50:55 10° NE
Cosmos 1340 Rocket 3.0 00:45:53 49° ESE 00:46:11 51° E 00:50:01 10° NNE
GEOS 3 Rocket 3.8 00:46:32 41° S 00:48:03 57° SW 00:53:11 10° NW
Cosmos 2227 4.4 00:46:55 40° SSE 00:48:36 55° ESE 00:54:08 10° NE
Cosmos 1607 4.2 00:44:17 10° NNW 00:50:27 66° NE 00:54:15 24° SE
SL-08 ROCKET BODY 4.4 00:48:33 37° S 00:51:13 86° E 00:57:25 10° N
CZ-4C R/B 3.3 00:44:40 10° NW 00:51:29 59° NE 00:58:25 13° ESE
Cosmos 1674 Rocket 3.9 00:47:18 10° N 00:51:40 56° ENE 00:52:46 43° SE
Meteor 2-10 Rocket 3.6 00:51:54 10° N 00:57:30 90° WSW 00:59:37 41° S
Cosmos 1689 Rocket 2.6 00:58:08 60° W 00:58:08 60° W 01:01:17 10° NNW
Cosmos 389 Rocket 3.8 00:55:03 10° NNW 00:58:13 30° W 00:58:22 29° W
Cosmos 2154 Rocket 4.2 00:56:54 35° SSE 00:59:28 60° E 01:05:39 10° NNE
Meteor 1-27 Rocket 4.4 00:53:57 10° N 00:59:39 48° ENE 01:02:22 28° SE
Cosmos 2297 Rocket 3.4 00:55:01 12° WSW 00:59:55 38° NW 01:05:12 10° NNE
Cosmos 921 Rocket 3.7 01:01:30 36° ESE 01:01:49 37° ESE 01:05:43 10° NE
BREEZE-M DEB (TANK) 4.0 00:59:28 22° WSW 01:02:16 83° SSE 01:16:01 10° ENE
USA 234 4.2 00:56:21 10° E 01:02:34 48° NNE 01:08:48 10° NW
CZ-2C R/B 3.1 00:58:13 10° NNE 01:03:16 46° E 01:04:42 36° SE
Cosmos 2084 Rocket 3.5 01:04:53 50° ESE 01:04:53 50° ESE 01:08:20 10° NE
Cosmos 1932 4.5 00:58:48 10° NW 01:05:10 70° WSW 01:07:49 37° SSE
Cosmos 1943 3.8 01:02:31 10° NNW 01:08:07 52° ENE 01:11:27 23° SE
Cosmos 494 Rocket 4.0 01:02:50 10° NNW 01:08:08 85° ENE 01:09:58 42° SSE
CZ-4B R/B 2.3 01:10:33 39° W 01:10:33 39° W 01:13:45 10° NNW
Cosmos 1908 Rocket 4.2 01:09:55 38° ESE 01:10:41 42° E 01:14:48 10° NNE
Cosmos 2184 Rocket 4.3 01:08:33 31° SSW 01:11:32 60° WNW 01:17:40 10° N
NOSS 2-3 (C) 4.2 01:09:53 30° SW 01:12:29 75° NW 01:18:25 10° NE
SeaSat 1 3.8 01:12:26 23° WSW 01:13:12 24° WSW 01:17:13 10° NW
Cosmos 807 4.3 01:13:22 10° N 01:16:21 82° NNE 01:16:21 82° NNE
Cosmos 1603 3.8 01:12:15 10° NNW 01:17:52 63° WSW 01:19:41 42° S
Meteor 2-6 Rocket 4.3 01:12:03 10° N 01:17:53 90° N 01:20:14 39° S
Cosmos 1862 4.0 01:22:24 39° ESE 01:22:55 41° E 01:26:43 10° NNE
Lacrosse 4 Rocket 3.4 01:21:41 10° WNW 01:24:39 18° WSW 01:24:39 18° WSW
Cosmos 1606 2.7 01:21:59 10° N 01:25:50 69° E 01:26:20 60° SE
ASTEX 1 4.2 01:24:50 10° N 01:29:27 42° WNW 01:31:11 31° WSW
Cosmos 1238 Rocket 2.5 01:26:31 10° N 01:30:42 82° E 01:31:03 71° SSE
Cosmos 2341 Rocket 4.0 01:28:22 37° S 01:31:07 82° E 01:37:32 10° N
NOSS 3-2 (A) 4.0 01:24:01 10° NW 01:31:26 80° NE 01:38:11 16° SE
NOSS 3-4 (A) 4.2 01:30:30 33° SSE 01:32:28 41° ESE 01:38:32 10° NE
NOSS 3-4 (C) 4.2 01:30:36 32° SSE 01:32:34 40° ESE 01:38:37 10° NE
Cosmos 1356 Rocket 3.4 01:32:22 55° SW 01:33:02 66° WNW 01:37:06 10° N
Uosat 12 SS-18 rocket 4.2 01:33:08 38° SW 01:34:55 77° NW 01:39:22 10° NE
Aureole 2 Rocket 4.4 01:33:04 10° NW 01:34:34 18° W 01:34:34 18° W
Sich 1 Rocket 3.5 01:34:41 53° SSW 01:35:44 81° W 01:40:17 10° N
Cosmos 962 Rocket 4.4 01:38:05 38° S 01:40:39 87° W 01:46:49 10° N
Okean 3 3.5 01:38:27 10° N 01:42:47 73° E 01:43:51 49° SSE
Cosmos 1733 Rocket 3.9 01:41:41 33° WSW 01:42:57 41° WNW 01:47:11 10° N
MOS 1-B Rocket 4.1 01:41:17 37° SSW 01:43:17 56° WSW 01:48:48 10° NNW
Cosmos 1892 4.0 01:44:30 27° W 01:45:13 29° WNW 01:48:35 10° NNW
BREEZE-M DEB (TANK) 4.1 01:28:07 10° WSW 01:47:20 78° SSE 01:52:00 10° ENE
H-2A R/B 4.3 01:44:39 10° NNW 01:48:00 24° WNW 01:49:51 18° WSW
SL-8 Rocket 4.2 01:45:33 34° SSE 01:48:26 67° E 01:54:43 10° NNE
ALOS 2 4.5 01:48:22 17° WSW 01:49:00 18° W 01:51:58 10° NW
Cosmos 44 3.5 01:48:37 38° SW 01:50:48 86° NW 01:56:18 10° NE
Meteor 2-13 Rocket 4.4 01:50:01 36° S 01:52:39 79° E 01:58:49 10° NNE
Cosmos 1378 Rocket 3.6 01:49:22 10° NNW 01:53:43 65° W 01:54:36 51° SSW
Cosmos 2218 Rocket 4.2 01:53:12 32° SSE 01:56:09 64° E 02:02:27 10° NNE
Coronas F rocket 3.6 01:57:50 18° WNW 01:57:50 18° WNW 01:59:28 10° NNW
ATLAS 2AS CENTAUR R/B 4.4 01:55:28 10° W 02:02:33 36° NNW 02:09:56 10° NE
Cosmos 1408 2.6 02:05:24 61° SW 02:05:56 75° W 02:09:43 10° N
Cosmos 1825 2.2 02:10:18 54° SW 02:10:53 64° W 02:14:41 10° N
Cosmos 2366 rocket 4.0 02:08:19 32° S 02:11:19 72° E 02:17:29 10° NNE
Okean 2 Rocket 3.1 02:13:58 45° SSW 02:15:19 80° W 02:19:51 10° N
Cosmos 1782 Rocket 3.7 02:17:59 42° SW 02:19:12 61° WNW 02:23:34 10° N
Cosmos 2263 Rocket 2.2 02:19:12 35° SSW 02:21:41 81° ESE 02:27:24 10° NNE
CZ-2C R/B 3.8 02:21:36 32° SW 02:23:40 44° W 02:29:02 10° NNW
SL-27 R/B 4.2 02:24:34 10° N 02:27:53 31° ENE 02:30:45 13° ESE
Cosmos 1727 Rocket 3.9 02:24:08 10° N 02:30:24 82° W 02:33:51 28° S
COSMOS 2406 3.6 02:28:45 10° NNW 02:34:32 65° ENE 02:40:15 10° SE
Cosmos 864 Rocket 4.4 02:31:25 31° SSW 02:34:36 82° W 02:40:47 10° N
Cosmos 1867 3.7 02:31:26 10° NW 02:36:48 55° WSW 02:39:21 30° S
RESURS DK-1 2.3 02:36:20 43° S 02:37:35 74° ESE 02:41:45 10° NNE
Cosmos 1975 Rocket 4.0 02:35:25 10° NNW 02:39:20 32° W 02:40:19 29° WSW
CZ-4C R/B 3.4 02:33:28 10° NW 02:40:01 40° WSW 02:43:31 26° SSW
ATLAS 5 CENTAUR R/B 4.3 02:35:14 10° NNW 02:40:15 29° NE 02:45:37 10° E
Cosmos 2278 Rocket 4.5 02:38:40 10° SE 02:41:23 14° E 02:44:05 10° ENE
CZ-2C R/B 4.1 02:38:58 10° N 02:43:17 27° WNW 02:46:13 16° WSW
Abrixas rocket 2.7 02:43:34 44° SSE 02:43:34 44° SSE 02:46:43 10° ENE
Iridium 4 Rocket 3.3 02:39:26 10° N 02:44:04 89° W 02:46:34 30° S
Cosmos 1624 Rocket 4.0 02:41:52 32° S 02:44:18 79° ESE 02:49:35 10° NNE
USA 234 3.2 02:38:51 10° SE 02:45:23 74° SW 02:51:57 10° NW
Elektron 3 4.0 02:43:22 10° NW 02:46:21 75° SW 02:51:11 10° SE
Resurs 1-4 Rocket 4.4 02:46:47 10° NE 02:50:08 17° E 02:53:26 10° SE
Cosmos 1536 Rocket 3.5 02:47:00 10° NNW 02:51:23 74° W 02:53:18 33° S
Cosmos 1943 4.3 02:47:11 10° NW 02:51:49 26° WSW 02:53:14 24° SW
Cosmos 1242 Rocket 2.7 02:48:41 10° NNW 02:52:05 51° W 02:52:43 44° SW
CENTAUR R/B 3.4 02:46:07 10° NW 02:53:49 69° NE 03:02:03 10° SE
USA 161 4.0 02:52:17 10° ESE 02:54:29 20° ENE 02:56:44 10° NNE
PSLV R/B 3.6 02:51:02 10° N 02:55:14 63° WNW 02:56:56 33° SW
Meteor 1-14 Rocket 4.4 02:52:04 28° SSW 02:55:19 69° WNW 03:01:13 10° N
Cosmos 1184 Rocket 3.6 02:55:58 34° WSW 02:56:40 39° WNW 02:59:52 10° N
SL-08 R/B 3.4 02:53:30 20° SSE 02:56:57 82° ENE 03:01:52 10° NNW
NOSS 3-2 (C) 4.3 02:51:29 10° NW 02:58:32 44° WSW 03:03:50 19° S
ARIANE 5 R/B 4.1 02:59:15 10° NE 03:03:28 27° E 03:07:40 10° SSE
Cosmos 1452 Rocket 4.1 03:02:36 21° S 03:05:51 49° ESE 03:10:55 10° NNE
Landsat 4 4.2 03:06:50 34° SW 03:07:53 42° W 03:11:32 10° NNW
ADEOS 4.2 03:04:58 10° NNE 03:10:05 51° E 03:13:56 17° S
AQUA 3.9 03:07:02 10° NNE 03:11:49 75° ESE 03:14:45 23° S
CBERS-1 4.1 03:07:29 10° NNE 03:12:40 77° ESE 03:16:02 22° S
Cosmos 1000 Rocket 4.4 03:07:13 10° N 03:13:23 85° W 03:18:27 16° S
Cosmos 2151 Rocket 4.2 03:12:10 26° SW 03:14:11 44° WNW 03:18:29 10° N
Okean 1-7 Rocket 3.7 03:12:25 10° N 03:17:01 85° E 03:20:30 17° S
BREEZE-M DEB (TANK) 4.5 02:58:07 10° W 03:18:38 70° N 03:23:12 10° E
Meteor 1-18 Rocket 4.5 03:14:06 10° NNW 03:19:34 52° W 03:23:12 21° SSW
NOSS 3-4 (A) 4.2 03:17:55 14° WSW 03:23:17 49° NW 03:29:45 10° NNE
NOSS 3-4 (C) 4.2 03:18:01 14° WSW 03:23:22 49° NW 03:29:51 10° NNE
Okean 1 Rocket 3.0 03:22:11 23° S 03:24:56 89° ESE 03:29:26 10° N
NPP 3.7 03:19:43 10° N 03:25:07 73° WNW 03:28:45 21° SSW
Cosmos 1536 4.3 03:21:48 11° SSE 03:25:21 33° E 03:29:02 10° NNE
COSMOS 2487 3.8 03:22:07 10° N 03:25:35 40° ENE 03:29:01 10° SE
SL-16 R/B 3.1 03:20:15 10° SE 03:26:21 58° ENE 03:32:26 10° N
Gbstr 26 Del rocket 3.7 03:26:00 23° S 03:27:37 33° SE 03:31:02 10° ENE
Okean O Rocket 4.2 03:28:47 10° ENE 03:30:50 13° E 03:32:53 10° ESE
Cosmos 1140 Rocket 3.6 03:29:21 10° NNW 03:34:30 75° ENE 03:39:37 10° SSE
Cosmos 1605 Rocket 4.4 03:30:36 10° S 03:36:39 60° E 03:42:49 10° NNE
Cosmos 2123 Rocket 4.1 03:31:28 10° N 03:37:50 84° E 03:44:10 10° S
Cosmos 1821 Rocket 4.1 03:32:45 17° S 03:37:55 83° W 03:44:22 10° N
GP-B 3.4 03:36:04 10° N 03:40:24 52° W 03:43:18 20° SSW
Cosmos 2056 Rocket 4.4 03:38:19 17° WSW 03:41:59 39° WNW 03:46:54 10° N
ERS-2 2.6 03:39:09 10° N 03:42:45 49° WNW 03:44:57 21° SW
NOSS 2-2 (C) 4.3 03:42:44 17° S 03:45:41 44° ESE 03:50:15 10° NE
CZ-2D R/B 3.0 03:40:33 10° NNE 03:45:50 48° E 03:51:07 10° S
Cosmos 1850 Rocket 4.3 03:40:38 10° NNW 03:45:53 73° ENE 03:51:09 10° SSE
Cosmos 407 Rocket 4.2 03:41:40 10° NW 03:46:17 34° WSW 03:49:42 16° SSW
Cosmos 1741 Rocket 4.3 03:42:19 10° NNW 03:47:38 73° ENE 03:52:53 10° SSE
Meteor 2-21 Rocket 4.4 03:42:26 15° S 03:47:39 84° W 03:53:48 10° N
Cosmos 1812 3.9 03:44:23 10° NNW 03:47:44 28° W 03:49:35 19° SW
Meteor 1-11 Rocket 3.9 03:43:04 13° S 03:48:24 84° E 03:54:25 10° NNE
Spot 4 Rocket 4.0 03:43:59 10° NNE 03:49:10 86° WNW 03:53:33 15° SSW
Cosmos 1025 Rocket 3.0 03:45:31 10° N 03:49:49 90° ENE 03:54:08 10° S
Meteor 2-15 4.4 03:43:48 10° N 03:50:00 84° W 03:56:09 10° S
Meteor 1-13 Rocket 4.3 03:45:03 10° NNW 03:50:39 64° W 03:56:22 10° S
EO 1 Del DPAF 3.5 03:47:15 10° SSE 03:51:08 74° ENE 03:55:02 10° N
BREEZE-M DEB (TANK) 4.3 03:48:26 10° WNW 03:52:53 78° NNE 04:12:13 10° ESE
SL-27 R/B 4.1 04:00:17 10° NW 04:02:59 20° W 04:04:27 16° SW
Cosmos 1844 Rocket 2.8 03:58:18 15° SW 04:03:01 72° WNW 04:08:43 10° NNE
Cosmos 2263 Rocket 4.0 04:02:06 10° W 04:06:20 21° NW 04:10:34 10° N
Cosmos 1400 Rocket 3.0 04:04:42 10° S 04:08:34 68° E 04:12:30 10° NNE
IRS-1D 3.5 04:04:21 10° NNE 04:09:29 88° WNW 04:14:29 10° SSW
Meteor 1-23 Rocket 4.3 04:04:05 10° NNW 04:09:52 86° W 04:15:31 10° S
Cosmos 1844 3.8 04:05:37 13° SSW 04:10:43 83° WNW 04:16:31 10° NNE
NOSS 2-2 (E) 3.7 04:07:42 14° SSW 04:11:19 82° SE 04:16:26 10° NE
Cosmos 1544 Rocket 3.6 04:11:09 10° S 04:15:35 85° E 04:19:59 10° N
Abrixas rocket 2.7 04:17:12 10° W 04:20:33 62° N 04:23:53 10° ENE
Cosmos 2278 Rocket 2.3 04:18:55 10° SSW 04:24:35 88° ESE 04:30:19 10° NNE
USA 161 3.3 04:23:19 13° SW 04:24:50 17° W 04:26:54 10° NW
ATLAS 5 CENTAUR R/B 2.4 04:19:37 10° NW 04:25:34 78° SW 04:31:56 10° SSE
USA 234 4.3 04:24:25 10° S 04:29:07 21° WSW 04:33:51 10° WNW
UNK 4.1 04:25:55 10° S 04:30:21 46° W 04:34:51 10° NNW
Resurs 1-4 Rocket 2.2 04:25:13 10° N 04:30:32 72° WNW 04:35:48 10° SSW
USA 129 1.8 04:28:47 10° SSE 04:30:54 72° ENE 04:32:57 10° N
Cosmos 2100 Rocket 4.4 04:25:50 10° S 04:32:01 71° E 04:38:19 10° NNE
Meteor 1-5 Rocket 4.4 04:26:24 10° S 04:32:18 82° E 04:38:03 10° NNE
Cosmos 614 Rocket 4.1 04:28:23 10° NNW 04:33:26 53° WSW 04:38:23 10° S
Cosmos 1315 Rocket 2.9 04:31:06 10° S 04:35:11 82° E 04:39:16 10° NNE
Cosmos 1892 Rocket 4.0 04:31:22 10° NNW 04:35:32 44° W 04:39:38 10° SSW
OPS 6432 4.2 04:35:12 10° SW 04:38:31 77° NW 04:41:39 10° NE
CZ-4B R/B 4.0 04:33:28 10° NNE 04:39:01 53° E 04:44:33 10° S
Cosmos 1174 3.7 04:36:02 10° NNW 04:39:55 77° NE 04:43:09 10° SE
Cosmos 2082 Rocket 2.4 04:35:01 10° NNW 04:40:48 81° ENE 04:46:31 10° SSE
ARIANE 5 R/B 3.1 04:38:04 10° N 04:42:45 41° WNW 04:47:24 10° SW
CENTAUR R/B 3.7 04:37:19 10° NW 04:44:16 35° WSW 04:51:30 10° S
Okean 2 3.8 04:40:23 10° NNW 04:44:18 44° W 04:48:12 10° SSW
MTI 4.5 04:41:27 10° SSW 04:44:32 36° W 04:47:38 10° NNW
MOZ.5/SAFIR/RUBIN 5/SL-8 4.1 04:40:01 10° SSE 04:44:47 77° ENE 04:49:35 10° N
Cosmos 1346 Rocket 4.0 04:41:21 10° N 04:45:20 48° ENE 04:49:14 10° SSE
Meteor 2-4 Rocket 4.1 04:40:30 10° NNW 04:45:32 41° W 04:50:30 10° SSW
Timation 2 Rocket 4.1 04:42:32 10° NW 04:48:32 54° WSW 04:54:19 10° S
